Location: El Álamo
(40.2307°N, 3.9945°W)
Time: 04:49:21
(UTC+00:00)

SAR-Lupe-2 - Pass Details

Date: 19 May 2025
Orbit: 478 x 487 km, 98.1° (Epoch: 16 May)

Event Time Altitude Azimuth Distance (km) Brightness Sun altitude
Exits shadow 20:57:49 28° 118° (ESE) 935 4.4 -14.7°
Maximum altitude 20:59:06 38° 72° (ENE) 740 4.2 -14.9°
Drops below altitude 10° 21:02:27 10° 3° (N) 1,662 6.8 -15.3°
Sets 21:04:35 0° 356° (N) 2,547 8.0 -15.6°
